Probability
100 100 100 100 100 100 100 100 100 100 100 100 100 100 100 100 100 100 100 100 100 100 100 100 100 97 97 97 97 97 97 97 97 97 97 97 97 97 97 94 84 87 97
100 100 100 100 100 100 100 100 100 100 100 100 100 100 100 100 100 100 100 100 100 100 100 100 100 100 97 97 97 97 97 97 97 97 97 94 97 97 94 94 90 90 94
100 100 100 100 100 100 100 100 100 100 100 100 100 100 100 100 100 100 100 100 100 100 100 100 100 100 97 97 97 97 97 97 97 97 94 84 87 94 97 94 94 90 90
100 100 100 100 100 100 100 100 100 100 100 100 100 100 100 100 100 100 100 100 100 100 100 100 100 97 97 97 97 97 97 97 97 94 52 65 71 94 97 94 94 94 94
100 100 100 100 100 100 100 100 100 100 100 100 100 100 100 100 100 100 100 100 100 100 100 100 100 97 97 94 97 97 97 97 97 84 48 52 74 94 97 97 94 90 94
100 100 100 100 100 100 100 100 100 100 100 100 100 100 100 100 100 100 100 100 100 100 100 97 94 94 94 97 90 87 97 97 90 55 48 58 81 94 100 100 94 94 97
100 100 100 100 100 100 100 100 100 100 100 100 100 100 100 100 100 100 100 100 100 100 100 100 97 84 94 94 87 84 90 94 55 32 35 58 90 100 100 100 100 97 90
100 100 100 100 100 100 100 100 100 100 100 100 100 100 100 100 100 100 97 100 100 100 100 100 100 94 84 87 90 94 90 90 65 45 55 61 94 97 100 100 100 97 94
100 100 100 100 100 100 100 100 100 100 100 100 100 100 100 100 100 100 100 100 97 100 100 100 100 97 94 87 90 100 100 97 45 42 58 65 94 97 100 100 100 97 94
94 100 100 100 100 100 100 100 100 100 100 100 100 100 100 100 100 100 100 100 100 100 100 97 94 94 94 97 90 97 100 84 32 26 42 74 94 94 97 100 100 100 97
84 87 97 97 97 97 100 100 100 100 100 100 100 100 100 100 100 100 100 100 100 100 100 100 100 100 97 97 100 100 94 39 26 23 35 87 94 94 97 100 100 100 100
84 84 87 90 94 94 94 90 90 94 97 97 94 94 94 84 87 97 97 100 100 100 100 100 97 97 97 71 74 97 77 42 23 10 42 94 94 94 97 97 100 100 100
81 84 84 81 81 84 87 87 87 87 87 87 87 90 94 81 77 84 74 90 90 87 87 90 87 81 71 52 48 48 45 35 16 13 32 84 87 90 90 90 97 100 100
77 81 84 77 74 77 77 81 87 84 77 77 74 77 61 52 65 52 65 61 68 68 71 68 65 71 71 65 45 32 39 29 10 3 16 81 84 87 84 90 94 97 100
77 77 74 74 74 74 74 71 61 65 74 71 68 65 61 55 48 45 45 48 45 52 48 45 52 55 48 42 39 32 19 16 19 10 10 61 81 81 81 87 94 94 100
61 74 71 74 74 68 65 65 55 52 52 55 58 55 52 48 42 32 29 29 29 29 29 19 32 32 26 26 23 29 23 16 16 10 13 45 74 77 74 81 87 94 97
55 68 68 71 68 65 68 65 65 52 48 45 42 35 42 35 26 23 26 16 16 16 16 6 13 10 10 13 10 13 13 6 13 10 6 10 35 55 68 71 90 94 94
48 52 52 65 52 52 61 58 58 45 35 35 35 29 26 23 19 13 10 10 13 10 10 3 3 3 3 3 3 3 3 0 3 3 3 6 10 29 45 68 77 94 94
52 55 52 55 48 48 42 42 35 26 23 19 23 19 19 16 13 10 13 13 6 6 0 3 0 0 0 3 0 0 3 0 0 3 3 3 3 10 10 29 71 84 90
45 42 39 35 35 35 32 32 26 19 10 3 6 10 6 6 10 3 3 3 3 0 0 0 0 0 0 0 0 0 0 0 0 0 3 3 0 3 3 13 26 39 81
42 32 26 23 23 26 23 19 10 6 3 3 3 10 6 6 6 0 0 0 0 0 0 0 0 0 0 0 0 0 0 0 0 0 0 0 0 0 3 6 6 16 29
19 19 19 23 23 23 16 13 10 6 3 3 3 3 3 3 3 3 0 0 0 0 0 0 0 0 0 0 0 0 0 0 0 0 0 0 0 0 3 6 10 10 6
13 13 13 13 13 13 10 3 0 0 0 0 0 0 3 3 6 3 3 3 0 0 0 0 0 0 0 0 0 0 0 0 0 0 0 0 0 0 0 0 0 6 6
13 10 10 10 6 6 0 0 0 0 0 0 0 0 0 0 3 3 3 0 0 0 0 0 0 0 0 0 0 0 0 0 0 0 0 0 0 0 0 0 0 0 0
13 13 10 6 6 3 3 0 0 0 0 0 0 0 0 0 0 0 0 0 0 0 0 0 0 0 0 0 0 0 0 0 0 0 0 0 0 0 0 0 0 0 0
6 10 10 6 3 3 0 0 0 0 0 0 0 0 0 0 0 0 0 0 0 0 0 0 0 0 0 0 0 0 0 0 0 0 0 0 0 0 0 0 0 0 0
Height
5914 5914 5914 5914 5913 5913 5914 5914 5914 5913 5913 5912 5912 5911 5910 5909 5909 5908 5907 5907 5906 5905 5904 5904 5903 5903 5902 5902 5902 5901 5901 5900 5900 5900 5899 5899 5899 5899 5899 5898 5898 5899 5899
5914 5913 5914 5913 5913 5913 5913 5914 5913 5913 5913 5912 5911 5911 5910 5909 5909 5908 5908 5907 5906 5905 5904 5904 5903 5903 5903 5902 5902 5902 5901 5901 5901 5901 5900 5900 5900 5900 5900 5900 5900 5900 5901
5913 5913 5913 5913 5913 5913 5913 5913 5913 5913 5912 5911 5911 5910 5910 5909 5908 5908 5907 5907 5906 5905 5904 5904 5903 5903 5903 5902 5902 5902 5901 5901 5901 5901 5901 5901 5901 5901 5900 5901 5901 5902 5902
5912 5912 5913 5912 5912 5912 5912 5912 5912 5912 5911 5911 5910 5909 5909 5908 5908 5907 5907 5906 5905 5905 5904 5903 5903 5903 5902 5902 5902 5902 5901 5901 5901 5901 5901 5902 5901 5901 5901 5902 5902 5903 5903
5912 5912 5912 5912 5912 5912 5911 5911 5911 5910 5910 5909 5909 5908 5908 5907 5907 5906 5905 5905 5904 5904 5903 5903 5902 5902 5902 5902 5901 5901 5901 5901 5901 5901 5902 5902 5902 5902 5902 5903 5903 5903 5904
5910 5911 5911 5910 5911 5911 5910 5910 5909 5909 5908 5908 5907 5907 5906 5906 5905 5905 5904 5904 5903 5903 5902 5902 5901 5901 5901 5901 5901 5901 5901 5901 5901 5901 5901 5902 5902 5902 5903 5903 5904 5904 5905
5908 5909 5909 5909 5909 5909 5908 5908 5908 5907 5907 5906 5906 5905 5904 5904 5904 5903 5903 5902 5902 5901 5901 5900 5900 5900 5900 5900 5899 5899 5900 5900 5900 5900 5901 5901 5902 5902 5903 5904 5904 5905 5905
5906 5907 5907 5907 5907 5907 5907 5906 5906 5905 5904 5904 5903 5903 5902 5902 5901 5901 5901 5900 5900 5899 5899 5898 5898 5898 5898 5898 5898 5898 5898 5898 5899 5899 5900 5900 5901 5902 5902 5903 5904 5904 5905
5904 5905 5905 5905 5905 5905 5904 5904 5903 5903 5902 5901 5900 5900 5899 5899 5899 5898 5898 5897 5897 5897 5896 5896 5895 5895 5895 5895 5896 5896 5896 5896 5897 5897 5898 5899 5900 5900 5901 5902 5903 5904 5905
5901 5901 5902 5902 5902 5902 5902 5901 5901 5900 5899 5898 5898 5897 5896 5896 5895 5895 5894 5894 5894 5894 5893 5893 5892 5892 5892 5893 5893 5893 5894 5894 5895 5896 5896 5897 5898 5898 5900 5901 5902 5903 5904
5897 5898 5899 5899 5899 5899 5899 5898 5897 5897 5896 5895 5894 5893 5893 5892 5891 5891 5890 5890 5890 5889 5889 5889 5889 5889 5889 5889 5890 5890 5891 5891 5892 5893 5894 5894 5895 5896 5897 5899 5900 5901 5903
5894 5895 5895 5895 5895 5895 5895 5895 5894 5893 5892 5891 5890 5889 5888 5888 5887 5886 5886 5886 5885 5885 5885 5884 5885 5885 5885 5885 5886 5886 5887 5888 5889 5889 5890 5891 5892 5893 5895 5896 5898 5899 5901
5891 5891 5891 5891 5891 5891 5891 5891 5890 5889 5888 5887 5885 5885 5884 5883 5882 5881 5881 5880 5880 5880 5880 5880 5880 5879 5880 5880 5881 5882 5883 5884 5885 5886 5887 5887 5889 5890 5891 5893 5895 5897 5898
5886 5887 5887 5888 5888 5887 5887 5887 5886 5885 5883 5882 5881 5880 5879 5878 5877 5877 5876 5875 5875 5875 5874 5874 5875 5874 5874 5875 5876 5877 5878 5879 5881 5881 5882 5883 5884 5886 5887 5889 5891 5893 5895
5883 5883 5884 5884 5883 5883 5883 5883 5882 5881 5879 5878 5877 5875 5875 5874 5873 5872 5872 5871 5871 5870 5870 5870 5870 5870 5870 5870 5871 5872 5873 5874 5876 5876 5877 5878 5880 5881 5882 5885 5887 5889 5891
5879 5879 5880 5879 5879 5879 5879 5878 5878 5877 5876 5874 5873 5872 5871 5870 5869 5868 5868 5867 5866 5865 5865 5865 5865 5865 5865 5865 5866 5867 5868 5869 5870 5871 5873 5874 5875 5876 5878 5880 5882 5885 5887
5876 5876 5877 5876 5875 5876 5875 5874 5874 5873 5872 5870 5869 5868 5867 5865 5865 5864 5863 5863 5862 5861 5861 5860 5860 5860 5860 5860 5861 5862 5862 5863 5865 5866 5867 5869 5870 5871 5873 5875 5878 5881 5883
5872 5873 5873 5872 5872 5872 5871 5871 5869 5868 5867 5866 5865 5864 5863 5861 5860 5859 5859 5858 5857 5857 5856 5856 5856 5855 5855 5856 5856 5857 5857 5858 5859 5860 5862 5864 5865 5866 5868 5870 5873 5875 5878
5870 5871 5870 5869 5868 5868 5867 5867 5865 5864 5863 5862 5861 5860 5858 5857 5855 5855 5854 5853 5852 5852 5851 5851 5850 5850 5850 5850 5851 5851 5852 5852 5853 5854 5856 5858 5859 5860 5862 5865 5868 5870 5872
5868 5868 5867 5866 5866 5865 5864 5863 5862 5861 5860 5858 5857 5855 5854 5852 5851 5850 5849 5848 5847 5847 5846 5846 5845 5845 5845 5845 5845 5845 5846 5847 5847 5848 5850 5851 5853 5855 5856 5859 5862 5864 5867
5865 5865 5864 5863 5862 5861 5860 5859 5858 5857 5856 5854 5853 5851 5849 5848 5846 5845 5844 5843 5842 5841 5841 5840 5840 5840 5839 5839 5839 5840 5840 5841 5841 5842 5843 5845 5847 5848 5850 5853 5855 5858 5860
5862 5862 5862 5860 5859 5858 5857 5856 5854 5853 5851 5850 5848 5847 5845 5843 5842 5841 5839 5838 5837 5836 5835 5834 5834 5833 5833 5833 5833 5833 5834 5835 5835 5836 5837 5838 5840 5842 5844 5846 5848 5851 5854
5860 5860 5859 5858 5856 5855 5853 5852 5851 5849 5848 5846 5844 5843 5841 5839 5838 5836 5834 5833 5832 5830 5829 5828 5827 5827 5827 5827 5827 5827 5827 5828 5828 5829 5830 5831 5832 5834 5836 5838 5841 5843 5846
5858 5857 5856 5854 5853 5851 5850 5849 5848 5846 5845 5843 5841 5839 5837 5835 5833 5831 5829 5828 5826 5825 5824 5822 5821 5820 5820 5819 5819 5819 5820 5820 5821 5822 5823 5824 5825 5827 5828 5831 5833 5835 5838
5856 5855 5854 5852 5851 5849 5848 5847 5845 5843 5842 5839 5837 5835 5833 5831 5829 5827 5825 5823 5821 5819 5818 5816 5815 5814 5813 5812 5811 5811 5811 5812 5812 5813 5814 5815 5817 5819 5820 5823 5825 5827 5830
5854 5853 5852 5851 5849 5848 5846 5844 5842 5840 5838 5836 5834 5831 5829 5827 5825 5823 5820 5818 5816 5814 5812 5810 5808 5807 5805 5804 5803 5802 5802 5802 5803 5804 5805 5806 5808 5810 5812 5814 5816 5819 5821
Wind_Speed
1 2 2 2 2 2 3 4 5 5 6 7 7 8 8 8 8 8 8 7 7 7 7 7 7 7 6 6 6 5 5 5 4 5 5 6 6 7 8 9 9 9 10
1 1 1 1 1 2 3 3 4 5 6 6 7 7 8 8 8 8 8 7 7 6 6 6 6 6 6 6 5 5 5 4 4 4 4 5 5 6 7 8 9 9 10
1 1 1 1 2 2 3 3 4 5 6 6 6 7 7 7 7 8 7 7 7 6 6 6 6 5 5 5 5 4 4 4 3 3 4 4 4 5 7 7 8 9 9
1 1 2 2 2 3 3 4 4 5 5 6 6 6 7 7 7 7 7 7 7 7 7 6 6 5 5 4 4 4 3 3 3 2 2 3 3 4 6 7 7 8 9
2 2 3 3 3 4 4 4 5 5 6 6 7 7 7 7 7 7 7 7 7 7 7 7 6 5 4 4 4 3 3 2 2 1 1 2 3 3 4 5 6 7 8
3 3 3 3 4 4 5 5 6 6 6 7 7 7 8 8 8 8 8 8 8 8 8 8 7 6 5 4 4 4 4 3 2 2 1 1 2 3 4 4 6 7 8
3 3 4 4 5 6 6 7 7 7 7 7 8 8 8 9 9 10 9 9 9 9 9 9 9 8 7 6 5 5 4 4 4 4 4 3 3 4 4 5 5 6 7
4 5 5 6 6 6 7 7 8 8 8 9 9 10 10 10 11 11 11 12 11 11 11 11 11 10 9 8 7 6 6 6 5 6 6 6 5 5 5 5 6 6 7
5 6 7 7 7 8 8 8 9 10 10 11 11 12 12 13 13 13 14 14 14 14 14 14 13 13 12 11 9 9 8 8 7 7 7 7 7 7 7 7 7 7 8
8 8 8 8 9 9 10 10 11 12 12 13 13 14 15 15 16 16 16 17 17 17 17 16 16 15 15 14 13 11 10 10 10 9 9 9 9 9 9 9 9 9 9
9 9 9 9 10 11 11 12 12 13 14 14 15 16 17 18 19 19 19 19 19 19 20 19 18 18 18 17 16 15 13 13 12 12 11 11 11 11 11 11 11 11 11
10 11 10 10 11 11 12 13 13 14 15 16 17 18 20 20 20 20 21 21 20 21 21 21 21 21 21 20 19 18 17 15 15 14 14 14 13 13 14 13 13 13 13
12 11 12 14 13 13 14 14 14 15 17 18 19 20 21 21 20 20 21 21 21 21 21 21 21 22 23 22 21 21 19 18 16 17 17 17 16 16 16 16 15 15 15
13 13 13 15 14 14 16 16 16 17 18 19 19 21 21 21 19 19 19 19 19 20 19 19 21 21 22 24 24 23 21 19 18 18 19 20 19 18 17 18 17 17 17
12 13 13 14 14 15 15 16 17 17 17 18 19 19 19 19 18 17 16 17 18 19 19 20 20 20 21 23 24 25 23 21 20 20 20 21 21 21 20 19 19 19 19
12 13 15 14 13 14 15 16 16 16 16 16 17 17 17 16 16 16 16 15 16 17 18 19 19 19 21 22 24 25 25 24 22 21 21 21 21 21 21 21 21 21 21
12 13 14 13 13 14 14 15 16 16 16 16 17 17 17 17 17 17 17 16 15 16 16 16 18 19 20 21 22 24 25 25 24 23 22 22 22 22 22 23 23 23 23
13 13 13 13 14 15 15 15 16 16 16 16 16 16 17 18 18 17 17 17 17 17 16 16 18 19 20 21 22 22 23 24 24 23 23 23 23 24 24 24 25 25 25
13 13 13 13 13 14 15 15 16 16 16 16 16 17 17 18 17 17 17 18 18 18 18 18 18 19 19 20 22 23 23 24 24 25 25 25 25 25 25 25 26 27 26
11 12 12 12 13 14 14 15 15 15 15 16 17 17 18 18 18 18 18 19 19 19 19 20 20 20 20 21 22 23 24 25 25 26 27 27 27 27 26 27 27 28 28
10 11 11 11 12 13 14 14 14 14 14 15 16 17 17 18 19 19 19 19 20 20 20 21 21 21 21 22 22 23 24 25 26 27 27 27 28 28 28 28 28 29 29
8 8 10 11 11 12 12 13 13 13 14 15 15 16 16 17 17 18 18 19 20 20 21 21 22 22 23 24 24 25 25 26 27 27 28 28 29 29 29 30 30 31 31
5 7 8 10 11 11 11 11 12 13 13 14 14 15 15 15 16 17 18 19 20 20 21 21 22 23 24 25 25 26 26 27 27 28 29 29 29 30 30 30 31 31 32
5 6 8 9 10 10 10 10 11 12 13 13 14 14 14 16 17 17 18 18 19 20 21 21 22 23 25 25 26 26 27 28 28 29 30 31 31 32 32 32 32 32 33
5 6 8 9 9 9 10 10 11 12 13 13 14 15 15 16 16 17 18 19 20 20 21 22 23 24 25 27 27 28 28 29 30 30 32 32 33 34 34 34 33 34 34
5 7 8 9 9 9 10 10 11 12 13 14 14 15 16 16 17 18 19 20 21 22 22 23 24 25 25 27 28 28 29 29 30 30 32 33 34 35 36 36 35 35 36
Wind_Direction
17 26 39 34 27 21 12 6 1 356 354 352 350 349 352 354 356 0 3 6 9 13 15 18 22 26 30 31 33 36 45 56 67 76 85 91 96 103 106 101 104 107 110
30 22 9 9 357 349 348 350 345 342 340 340 339 340 343 346 347 351 356 359 359 2 5 5 8 13 19 24 28 32 39 47 57 70 82 90 97 107 112 111 112 112 114
32 9 320 313 308 313 320 322 323 324 324 327 330 333 335 338 339 341 345 346 346 348 348 348 349 355 3 10 15 22 30 38 47 62 77 88 101 113 122 119 119 118 117
322 321 298 298 295 297 303 304 308 312 314 316 320 323 325 328 328 330 331 331 331 332 334 333 333 337 340 348 355 0 9 22 31 44 73 90 107 120 126 123 127 127 125
296 291 296 297 293 292 296 300 302 303 307 308 310 310 312 316 319 321 323 322 320 320 322 321 322 320 320 327 332 333 335 346 359 5 57 109 117 135 135 133 135 137 139
282 293 302 297 295 292 292 295 295 294 300 303 303 302 303 305 306 309 313 314 313 312 311 311 311 311 306 305 307 305 303 301 292 285 259 189 159 162 162 157 152 148 151
273 286 295 298 293 292 291 292 291 292 295 297 298 300 300 300 300 300 302 304 303 301 299 299 300 300 298 295 288 280 281 280 272 263 252 227 204 187 183 179 170 164 163
256 275 288 294 292 294 297 298 296 294 294 295 296 296 298 299 299 297 296 297 297 295 293 291 290 290 288 286 281 271 264 266 264 261 254 238 223 207 201 196 187 182 178
253 272 281 289 291 295 298 299 299 296 292 292 293 294 296 296 294 294 293 291 290 289 288 286 285 282 281 278 273 268 263 261 257 257 256 245 234 220 210 206 201 192 185
247 268 276 282 288 290 294 298 298 296 293 293 291 291 291 291 290 290 289 288 285 284 282 281 280 278 275 271 268 265 263 260 256 253 253 250 241 230 221 214 209 203 195
252 264 269 273 280 286 291 296 297 295 292 291 290 288 287 284 284 284 285 285 284 281 278 274 273 272 269 267 265 263 260 261 259 253 252 249 244 236 230 223 216 211 205
261 264 266 276 277 284 287 295 296 294 293 290 287 287 288 284 282 281 280 279 280 281 277 271 271 269 265 263 262 262 260 260 260 256 249 247 243 239 235 229 225 219 212
265 274 272 274 275 283 287 290 294 295 292 290 287 287 287 283 279 279 278 278 279 280 275 271 272 268 262 259 259 260 259 259 260 258 251 248 246 242 238 233 228 224 218
273 272 274 272 275 281 286 287 292 294 292 290 288 288 287 286 281 281 280 278 278 279 275 273 270 269 263 259 257 258 259 258 259 258 253 248 244 241 239 236 232 227 223
273 274 281 282 286 284 286 288 291 294 291 288 286 288 287 287 284 284 284 281 279 277 273 271 268 266 263 261 258 257 258 257 262 260 254 248 245 241 239 236 234 228 225
272 274 283 285 288 288 288 291 292 294 293 291 292 292 287 287 283 283 285 284 283 279 274 272 274 269 262 259 258 256 258 256 260 258 252 249 245 242 238 236 234 231 228
279 280 285 289 292 292 293 293 295 296 294 293 292 290 288 284 285 282 283 281 281 282 276 274 273 268 262 258 256 257 258 257 256 254 251 248 245 242 239 235 233 231 231
286 291 290 291 290 293 295 294 295 295 295 295 293 292 291 288 285 284 284 283 282 283 279 275 273 269 264 261 258 257 256 256 254 253 250 247 244 241 242 239 235 234 232
287 291 293 292 293 295 295 295 296 295 294 293 294 294 293 291 288 287 286 283 283 282 280 276 274 271 266 264 260 258 259 257 255 253 251 247 244 244 243 240 238 236 234
285 290 296 295 293 294 296 297 296 294 293 293 293 293 292 292 291 289 285 283 282 281 279 276 273 272 268 265 263 261 259 258 257 256 251 248 246 243 244 242 241 239 235
284 291 296 298 299 298 298 297 297 296 297 296 295 293 292 293 292 288 286 284 283 282 280 277 274 271 268 266 265 263 259 257 256 254 250 248 246 244 243 242 242 240 238
286 291 297 301 305 304 303 301 302 304 304 303 299 295 295 295 294 291 288 286 285 284 281 278 275 271 269 267 266 264 261 259 256 254 251 249 247 244 243 242 241 240 240
291 295 301 306 308 309 310 310 309 309 308 307 304 302 301 301 299 297 294 291 289 286 283 281 277 274 271 269 267 265 262 261 258 254 253 250 249 246 244 243 242 238 236
308 314 319 322 323 321 319 317 316 316 315 314 312 311 310 308 305 303 300 296 293 291 288 285 282 278 274 271 269 266 263 260 258 256 254 251 249 247 246 245 242 240 237
333 334 338 340 337 332 328 325 323 322 322 320 319 316 314 311 309 307 303 300 298 295 292 288 285 282 278 275 273 270 266 263 259 256 254 252 249 246 245 244 242 241 238
351 347 347 347 343 341 339 336 333 331 330 328 326 323 320 317 314 311 307 304 302 299 295 292 289 285 281 278 275 272 269 266 262 257 254 252 250 247 245 243 243 241 238